Tracking 19245 objects as of 18-Aug-2018
HD Live streaming from Space Station
objects crossing your sky now

EXPLORER 30

Track EXPLORER 30 now!
10-day predictions
EXPLORER 30 is classified as:


NORAD ID: 1738
Int'l Code: 1965-093A
Perigee: 676.0 km
Apogee: 854.2 km
Inclination: 59.7 °
Period: 100.0 minutes
Semi major axis: 7136 km
RCS: 0.3725 m2 (medium)
Launch date: November 19, 1965
Source: United States (US)
Launch site: WALLOPS ISLAND (WLPIS)
aabbcc
Your satellite tracking list
Your tracking list is empty




NASA's NSSDC Master Catalog

Two Line Element Set (TLE):
1 01738U 65093A   18230.21414360 -.00000118  00000-0  10586-4 0  9992
2 01738  59.7071 236.4897 0124863 303.0775  55.8322 14.40165338765174
Source of the keplerian elements: AFSPC